Weather in Boryatino

Russia / Tula Oblast     53°24′54″N   38°09′34″E
temp.,
°C
wind,
m/s
gust,
m/s
humid.,
%
clouds,
%
prec.,
mm/h
press.,
hPa
HPBL,
m
17 september, fri
fri1700:00+5nw117936 0.0 102010
03:00+4wnw1181100 0.0 102011
06:00+5wnw227890 0.0 101948
09:00+9nnw2258100 0.0 1019653
12:00+11nne2254100 0.0 10181169
15:00+11nne3252100 0.0 10181154
18:00+9ne4558100 0.0 1018316
21:00+7ene5966100 0.0 1019400
18 september, sat
sat1800:00+7ene4965100 0.0 1020456
03:00+6ene5967100 0.0 1020440
06:00+3ene51176100 0.0 1021278
09:00+7e71058100 0.0 1021640
12:00+11e7939100 0.0 10201189
15:00+11ese7839100 0.0 10201268
18:00+10e6940100 0.0 10201062
21:00+9ese61044100 0.1 1020886
19 september, sun
sun1900:00+6ese71380100 1.5 1020651
03:00+6e71488100 3.9 1019616
06:00+6e81692100 4.7 1018558
09:00+6e91793100 9.9 1017603
12:00+6e91793100 6.0 1017624
15:00+6ese91793100 10.9 1016760
18:00+6ese91694100 2.8 1015792
21:00+7ese71495100 5.5 1014787
20 september, mon
mon2000:00+7e71395100 0.1 1013648
03:00+7e71296100 0.4 1013552
06:00+7e71297100 0.1 1012549
09:00+7e71296100 0.1 1012570
12:00+7e71296100 0.4 1012572
15:00+7e71296100 0.8 1012488
18:00+7e71296100 1.9 1012441
21:00+7e61398100 4.4 1012508
21 september, tue
tue2100:00+8ese51098100 1.8 1012476
03:00+9se4898100 3.0 1011360
06:00+7sw359590 0.1 1012134
09:00+8s3587100 0.1 1013375
12:00+10s3579100 0.0 1013591
15:00+9s4686100 0.0 1013513
18:00+9sw358883 0.1 1013400
21:00+8ssw2392100 0.3 1013150